Zurück zum Katalog

SL-8 DEB

AktivLEO
NORAD 15033·DEBRIS·🇷🇺 Russia

Gestartet Jun 8, 1984 von Plesetsk Cosmodrome

Loading…

Nächste Überflüge (nächste 24 Stunden)

TLE

AktuellSource: Space-Track

Epoche: Sep 14, 2026, 10:13 UTC

1 15033U 84056C   26257.42588116  .00000781  00000-0  20620-3 0  9991
2 15033  74.0653 261.3395 0010317  94.5580 336.2376 14.50545348215312

Verfolge SL-8 DEB in Echtzeit mit AllMySat

Download on the App Store